Flag Island, MN

12:48 AM CDT on July 22, 2017 (GMT -0500)
Flag Island

Weather History for KFGN - January, 2013

Change the Weather History Date:

Saturday, January 12, 2013

  Actual Average Record
Temperature  
Mean Temperature 0 °F -  
Max Temperature 8 °F 9 °F 37 °F (2014)
Min Temperature -9 °F -2 °F -29 °F (1998)
Degree Days  
Heating Degree Days 66    
Moisture  
Dew Point -2 °F    
Average Humidity 80    
Maximum Humidity 85    
Minimum Humidity 72    
Precipitation  
Precipitation 0.00 in - - ()
Sea Level Pressure  
Sea Level Pressure 29.78 in    
Wind  
Wind Speed 18 mph (NNW)    
Max Wind Speed 22 mph    
Max Gust Speed 31 mph    
Visibility 7 miles    
Events Snow    
Averages and records for this station are not official NWS values.
T = Trace of Precipitation, MM = Missing Value Source: NWS Daily Summary

Daily Weather History Graph

Daily Weather History Graph

Search for Another Location

Airport or City:

Trip Planner

Search our weather history database for the weather conditions in past years. The results will help you decide how hot, cold, wet, or windy it might be!

Date:

Astronomy

Jan. 12, 2013 Rise Set
Actual Time 8:11 AM CST 4:45 PM CST
Civil Twilight 7:34 AM CST 5:21 PM CST
Nautical Twilight 6:54 AM CST 6:01 PM CST
Astronomical Twilight 6:16 AM CST 6:40 PM CST
Moon 8:21 AM CST (1/12) 6:26 PM CST (1/12)
Length of Visible Light 9h 47m
Length of Day
8h 33m
New Moon, 1% of the Moon is Illuminated
Jan 12
New Moon
Jan 18
First Quarter
Jan 26
Full
Feb 3
Last Quarter
Feb 10
New

Hourly Weather History & Observations

Time (CST) Temp. Windchill Dew Point Humidity Pressure Visibility Wind Dir Wind Speed Gust Speed Precip Events Conditions
12:14 AM 8.6 °F -10.0 °F 5.0 °F 85% 29.49 in 1.0 mi North 18.4 mph 25.3 mph N/A Snow Snow
12:34 AM 8.6 °F -11.0 °F 5.0 °F 85% 29.48 in 0.5 mi North 20.7 mph - N/A Snow Heavy Snow
12:53 AM 8.6 °F -11.0 °F 5.0 °F 85% 29.48 in 0.5 mi North 20.7 mph - N/A Snow Heavy Snow
1:34 AM 6.8 °F -11.3 °F 3.2 °F 85% 29.49 in 0.8 mi North 16.1 mph 26.5 mph N/A Snow Snow
1:53 AM 6.8 °F -12.4 °F 3.2 °F 85% 29.49 in 0.5 mi North 18.4 mph 21.9 mph N/A Snow Snow
2:14 AM 6.8 °F -12.9 °F 3.2 °F 85% 29.49 in 1.2 mi North 19.6 mph - N/A Snow Light Snow
2:34 AM 6.8 °F -13.4 °F 3.2 °F 85% 29.49 in 1.5 mi North 20.7 mph 26.5 mph N/A Snow Light Snow
2:53 AM 6.8 °F -13.8 °F 3.2 °F 85% 29.51 in 1.8 mi North 21.9 mph - N/A Snow Light Snow
3:14 AM 6.8 °F -12.9 °F 1.4 °F 79% 29.50 in 1.5 mi North 19.6 mph - N/A Snow Light Snow
3:33 AM 6.8 °F -12.4 °F 1.4 °F 79% 29.51 in 2.0 mi North 18.4 mph 24.2 mph N/A Snow Light Snow
3:53 AM 6.8 °F -12.4 °F 1.4 °F 79% 29.52 in 2.5 mi North 18.4 mph 23.0 mph N/A Snow Light Snow
4:14 AM 6.8 °F -11.8 °F 1.4 °F 79% 29.52 in 2.0 mi North 17.3 mph - N/A Snow Light Snow
4:33 AM 6.8 °F -12.4 °F 1.4 °F 79% 29.53 in 2.5 mi North 18.4 mph 26.5 mph N/A Snow Light Snow
4:54 AM 6.8 °F -12.9 °F 1.4 °F 79% 29.53 in 2.0 mi North 19.6 mph - N/A Snow Light Snow
5:13 AM 6.8 °F -13.4 °F 1.4 °F 79% 29.53 in 2.5 mi North 20.7 mph 24.2 mph N/A Snow Light Snow
5:33 AM 6.8 °F -13.8 °F 1.4 °F 79% 29.54 in 2.5 mi North 21.9 mph 25.3 mph N/A Snow Light Snow
5:54 AM 6.8 °F -12.9 °F 1.4 °F 79% 29.56 in 3.0 mi North 19.6 mph 25.3 mph N/A Snow Light Snow
6:13 AM 6.8 °F -13.8 °F 1.4 °F 79% 29.57 in 4.0 mi NNW 21.9 mph - N/A Snow Light Snow
6:34 AM 6.8 °F -12.9 °F 1.4 °F 79% 29.58 in 5.0 mi NNW 19.6 mph - N/A Snow Light Snow
6:53 AM 6.8 °F -13.4 °F 1.4 °F 79% 29.61 in 4.0 mi NNW 20.7 mph 31.1 mph N/A Snow Light Snow
7:14 AM 5.0 °F -14.7 °F 1.4 °F 85% 29.63 in 1.2 mi NNW 18.4 mph 25.3 mph N/A Snow Light Snow
7:33 AM 5.0 °F -15.7 °F 1.4 °F 85% 29.64 in 1.5 mi NNW 20.7 mph 26.5 mph N/A Snow Light Snow
7:53 AM 5.0 °F -16.2 °F 1.4 °F 85% 29.65 in 2.5 mi NNW 21.9 mph 25.3 mph N/A Snow Light Snow
8:14 AM 5.0 °F -14.7 °F -0.4 °F 78% 29.67 in 2.0 mi NNW 18.4 mph 23.0 mph N/A Snow Light Snow
8:33 AM 5.0 °F -14.7 °F -0.4 °F 78% 29.68 in 2.5 mi NNW 18.4 mph 24.2 mph N/A   Haze
8:54 AM 5.0 °F -15.2 °F -0.4 °F 78% 29.69 in 3.0 mi NNW 19.6 mph - N/A   Haze
9:13 AM 5.0 °F -15.2 °F -0.4 °F 78% 29.70 in 4.0 mi NNW 19.6 mph 26.5 mph N/A   Haze
9:34 AM 5.0 °F -14.7 °F -0.4 °F 78% 29.71 in 10.0 mi NNW 18.4 mph - N/A   Overcast
9:54 AM 5.0 °F -15.7 °F -0.4 °F 78% 29.72 in 10.0 mi NNW 20.7 mph 24.2 mph N/A   Overcast
10:13 AM 5.0 °F -16.2 °F -0.4 °F 78% 29.74 in 10.0 mi NNW 21.9 mph 26.5 mph N/A   Overcast
10:34 AM 5.0 °F -14.7 °F -0.4 °F 78% 29.75 in 10.0 mi NNW 18.4 mph - N/A   Overcast
11:14 AM 3.2 °F -18.1 °F -0.4 °F 85% 29.77 in 7.0 mi NNW 20.7 mph - N/A   Overcast
11:33 AM 3.2 °F -17.1 °F -0.4 °F 85% 29.77 in 10.0 mi NNW 18.4 mph - N/A Snow Light Snow
11:54 AM 5.0 °F -15.7 °F -2.2 °F 72% 29.79 in 7.0 mi NNW 20.7 mph - N/A Snow Light Snow
12:34 PM 5.0 °F -14.7 °F -2.2 °F 72% 29.80 in 10.0 mi NNW 18.4 mph - N/A Snow Light Snow
12:53 PM 5.0 °F -14.7 °F -2.2 °F 72% 29.81 in 10.0 mi NNW 18.4 mph - N/A Snow Light Snow
1:14 PM 5.0 °F -13.6 °F -0.4 °F 78% 29.82 in 10.0 mi NNW 16.1 mph - N/A   Mostly Cloudy
1:34 PM 5.0 °F -14.7 °F -0.4 °F 78% 29.83 in 7.0 mi NNW 18.4 mph - N/A   Overcast
1:53 PM 5.0 °F -14.2 °F -0.4 °F 78% 29.84 in 7.0 mi NW 17.3 mph - N/A   Overcast
2:14 PM 6.8 °F -11.8 °F -0.4 °F 72% 29.86 in 10.0 mi NNW 17.3 mph - N/A   Overcast
2:33 PM 6.8 °F -11.8 °F -0.4 °F 72% 29.87 in 10.0 mi NNW 17.3 mph - N/A   Overcast
2:54 PM 6.8 °F -11.8 °F -0.4 °F 72% 29.88 in 10.0 mi NNW 17.3 mph - N/A   Mostly Cloudy
3:13 PM 5.0 °F -13.0 °F -0.4 °F 78% 29.89 in 10.0 mi NW 15.0 mph - N/A   Mostly Cloudy
3:34 PM 5.0 °F -12.3 °F -0.4 °F 78% 29.90 in 10.0 mi NNW 13.8 mph - N/A   Mostly Cloudy
3:54 PM 5.0 °F -12.3 °F -0.4 °F 78% 29.91 in 10.0 mi NNW 13.8 mph - N/A   Overcast
4:13 PM 3.2 °F -13.1 °F -0.4 °F 85% 29.92 in 10.0 mi WNW 11.5 mph - N/A   Overcast
4:34 PM 3.2 °F -15.3 °F -2.2 °F 78% 29.93 in 10.0 mi WNW 15.0 mph - N/A   Overcast
4:53 PM 3.2 °F -15.3 °F -2.2 °F 78% 29.94 in 10.0 mi NW 15.0 mph - N/A   Overcast
5:14 PM 1.4 °F -18.8 °F -2.2 °F 85% 29.95 in 10.0 mi WNW 17.3 mph - N/A   Overcast
5:33 PM 1.4 °F -16.9 °F -4.0 °F 78% 29.96 in 10.0 mi NW 13.8 mph - N/A   Overcast
5:53 PM 1.4 °F -18.2 °F -4.0 °F 78% 29.96 in 10.0 mi NW 16.1 mph - N/A   Overcast
6:14 PM -0.4 °F -21.2 °F -5.8 °F 78% 29.97 in 10.0 mi NW 17.3 mph - N/A   Overcast
6:33 PM -0.4 °F -21.2 °F -5.8 °F 78% 29.98 in 10.0 mi NW 17.3 mph - N/A   Overcast
6:35 PM -0.4 °F -21.7 °F -5.8 °F 78% 29.98 in 10.0 mi NW 18.4 mph - N/A   Overcast
7:13 PM -2.2 °F -22.9 °F -7.6 °F 78% 30.00 in 10.0 mi NW 16.1 mph - N/A   Overcast
7:33 PM -2.2 °F -23.5 °F -7.6 °F 78% 30.00 in 10.0 mi NW 17.3 mph - N/A   Overcast
7:54 PM -2.2 °F -22.2 °F -7.6 °F 78% 30.01 in 10.0 mi NW 15.0 mph - N/A   Overcast
8:13 PM -4.0 °F -23.7 °F -7.6 °F 85% 30.01 in 10.0 mi NW 13.8 mph - N/A   Overcast
8:33 PM -4.0 °F -24.5 °F -9.4 °F 78% 30.01 in 10.0 mi NW 15.0 mph - N/A   Overcast
8:54 PM -5.8 °F -26.8 °F -9.4 °F 84% 30.02 in 10.0 mi NW 15.0 mph - N/A   Scattered Clouds
9:14 PM -5.8 °F -26.0 °F -11.2 °F 77% 30.03 in 10.0 mi NW 13.8 mph - N/A   Clear
9:33 PM -7.6 °F -28.3 °F -11.2 °F 84% 30.03 in 10.0 mi NW 13.8 mph - N/A   Clear
9:54 PM -7.6 °F -26.6 °F -11.2 °F 84% 30.03 in 10.0 mi NW 11.5 mph - N/A   Clear
10:14 PM -7.6 °F -24.6 °F -11.2 °F 84% 30.04 in 10.0 mi NW 9.2 mph - N/A   Clear
10:33 PM -7.6 °F -24.6 °F -13.0 °F 77% 30.04 in 10.0 mi NW 9.2 mph - N/A   Clear
10:54 PM -9.4 °F -26.8 °F -13.0 °F 84% 30.05 in 10.0 mi NW 9.2 mph - N/A   Clear
11:14 PM -9.4 °F -26.8 °F -13.0 °F 84% 30.06 in 10.0 mi WNW 9.2 mph - N/A   Clear
11:33 PM -9.4 °F -24.3 °F -14.8 °F 77% 30.07 in 10.0 mi WNW 6.9 mph - N/A   Clear